Weather History for KCEZ - October, 2014

Change the Weather History Date:

Monday, October 20, 2014

  Actual Average Record
Temperature  
Mean Temperature 54 °F 47 °F  
Max Temperature 72 °F 64 °F 75 °F (2003)
Min Temperature 36 °F 30 °F 25 °F (2013)
Degree Days  
Heating Degree Days 11 18  
Month to date heating degree days 234 288  
Since 1 July heating degree days 313 460  
Cooling Degree Days 0 0  
Month to date cooling degree days 0 0  
Year to date cooling degree days 537 426  
Growing Degree Days 3 (Base 50)    
Moisture  
Dew Point 40 °F    
Average Humidity 67    
Maximum Humidity 100    
Minimum Humidity 33    
Precipitation  
Precipitation 0.00 in 0.03 in 0.51 in (2010)
Month to date precipitation 0.17 0.91  
Year to date precipitation 7.77 11.13  
Sea Level Pressure  
Sea Level Pressure 30.04 in    
Wind  
Wind Speed 6 mph (East)    
Max Wind Speed 17 mph    
Max Gust Speed 22 mph    
Visibility 10 miles    
Events      
T = Trace of Precipitation, MM = Missing Value Source: NWS Daily Summary

Daily Weather History Graph

Daily Weather History Graph

Search for Another Location

Airport or City:

Trip Planner

Search our weather history database for the weather conditions in past years. The results will help you decide how hot, cold, wet, or windy it might be!

Date:

Astronomy

Oct. 20, 2014 Rise Set
Actual Time 7:27 AM MDT 6:30 PM MDT
Civil Twilight 7:00 AM MDT 6:57 PM MDT
Nautical Twilight 6:30 AM MDT 7:27 PM MDT
Astronomical Twilight 6:00 AM MDT 7:57 PM MDT
Moon 4:22 AM MDT (10/20) 4:51 PM MDT (10/20)
Length of Visible Light 11h 56m
Length of Day
11h 03m
Waning Crescent, 10% of the Moon is Illuminated
Oct 20
Waning Crescent
Oct 23
New
Oct 30
First Quarter
Nov 6
Full
Nov 14
Last Quarter

Hourly Weather History & Observations

Time (MDT) Temp. Windchill Dew Point Humidity Pressure Visibility Wind Dir Wind Speed Gust Speed Precip Events Conditions
12:53 AM 45.0 °F - 42.1 °F 90% 30.03 in 10.0 mi Calm Calm - N/A   Clear
1:53 AM 42.1 °F 38.4 °F 39.9 °F 92% 30.03 in 10.0 mi ENE 5.8 mph - N/A   Clear
2:53 AM 42.1 °F 40.2 °F 41.0 °F 96% 30.04 in 10.0 mi NNE 3.5 mph - N/A   Clear
3:53 AM 39.9 °F 35.1 °F 37.9 °F 93% 30.05 in 10.0 mi NE 6.9 mph - N/A   Clear
4:53 AM 39.9 °F 35.8 °F 37.9 °F 93% 30.08 in 10.0 mi ENE 5.8 mph - N/A   Clear
5:53 AM 39.0 °F - 37.0 °F 93% 30.10 in 10.0 mi Calm Calm - N/A   Clear
6:53 AM 36.0 °F 33.3 °F 35.1 °F 97% 30.12 in 10.0 mi SW 3.5 mph - N/A   Mostly Cloudy
7:53 AM 37.9 °F 33.5 °F 36.0 °F 93% 30.13 in 10.0 mi ENE 5.8 mph - N/A   Overcast
8:53 AM 46.0 °F 43.9 °F 41.0 °F 83% 30.12 in 10.0 mi ENE 4.6 mph - N/A   Clear
9:53 AM 55.0 °F - 44.1 °F 67% 30.11 in 10.0 mi Calm Calm - N/A   Clear
10:53 AM 61.0 °F - 41.0 °F 48% 30.09 in 10.0 mi Calm Calm - N/A   Clear
11:53 AM 64.9 °F - 41.0 °F 42% 30.07 in 10.0 mi Calm Calm - N/A   Clear
12:53 PM 69.1 °F - 41.0 °F 36% 30.04 in 10.0 mi WSW 8.1 mph - N/A   Clear
1:53 PM 70.0 °F - 39.0 °F 32% 30.01 in 10.0 mi SSE 12.7 mph 21.9 mph N/A   Partly Cloudy
2:53 PM 69.1 °F - 39.9 °F 35% 29.99 in 10.0 mi SE 6.9 mph - N/A   Partly Cloudy
3:53 PM 69.1 °F - 39.0 °F 33% 29.98 in 10.0 mi SE 10.4 mph - N/A   Clear
4:53 PM 70.0 °F - 39.0 °F 32% 29.98 in 10.0 mi South 8.1 mph - N/A   Scattered Clouds
5:53 PM 66.0 °F - 37.9 °F 36% 29.98 in 10.0 mi SSE 9.2 mph - N/A   Mostly Cloudy
6:53 PM 63.0 °F - 42.1 °F 46% 30.01 in 10.0 mi SE 10.4 mph - N/A   Overcast
7:53 PM 60.1 °F - 42.1 °F 51% 30.02 in 10.0 mi North 5.8 mph - N/A   Overcast
8:53 PM 54.0 °F - 42.1 °F 64% 30.02 in 10.0 mi East 3.5 mph - N/A   Clear
9:53 PM 51.1 °F - 41.0 °F 68% 30.01 in 10.0 mi NE 8.1 mph - N/A   Clear
10:53 PM 50.0 °F - 39.9 °F 68% 29.99 in 10.0 mi NNW 5.8 mph - N/A   Clear
11:53 PM 48.9 °F - 39.0 °F 69% 29.99 in 10.0 mi NNE 4.6 mph - N/A   Mostly Cloudy